Location: Winthrop
(48.4780°N, 120.1850°W)
Time: 17:04:27
(UTC-07:00)

SO-50 - Pass Details

Date: 21 May 2022
Orbit: 586 x 697 km, 64.6° (Epoch: 28 June)

Event Time Altitude Azimuth Distance (km) Brightness Sun altitude
Rises 21:34:30 0° 311° (NW) 3,080 ? -7.6°
Reaches altitude 10° 21:37:15 10° 297° (WNW) 2,162 ? -8.0°
Maximum altitude 21:41:03 23° 247° (WSW) 1,478 ? -8.4°
Drops below altitude 10° 21:44:50 10° 196° (SSW) 2,141 ? -8.9°
Enters shadow 21:47:23 - 182° (S) 2,978 ? -9.1°
